TimeAKDT,TemperatureF,Dew PointF,Humidity,Sea Level PressureIn,VisibilityMPH,Wind Direction,Wind SpeedMPH,Gust SpeedMPH,PrecipitationIn,Events,Conditions,WindDirDegrees,DateUTC
12:53 AM,35.1,28.9,78,29.73,10.0,Calm,Calm,-,N/A,,Scattered Clouds,0,2013-11-01 08:53:00
1:53 AM,33.1,28.9,85,29.75,10.0,West,4.6,-,N/A,,Partly Cloudy,270,2013-11-01 09:53:00
2:53 AM,33.1,30.0,89,29.77,10.0,West,4.6,-,N/A,,Scattered Clouds,280,2013-11-01 10:53:00
3:53 AM,33.1,28.9,85,29.79,10.0,West,3.5,-,N/A,,Clear,270,2013-11-01 11:53:00
4:53 AM,34.0,28.9,82,29.81,10.0,SW,3.5,-,N/A,,Clear,230,2013-11-01 12:53:00
5:53 AM,32.0,28.9,88,29.82,10.0,West,3.5,-,N/A,,Clear,260,2013-11-01 13:53:00
6:53 AM,32.0,28.9,88,29.84,10.0,Calm,Calm,-,N/A,,Clear,0,2013-11-01 14:53:00
7:53 AM,34.0,28.9,82,29.86,10.0,Calm,Calm,-,N/A,,Partly Cloudy,0,2013-11-01 15:53:00
8:53 AM,35.1,28.9,78,29.88,10.0,Calm,Calm,-,N/A,,Partly Cloudy,0,2013-11-01 16:53:00
9:53 AM,34.0,28.9,82,29.92,10.0,West,4.6,-,N/A,,Scattered Clouds,270,2013-11-01 17:53:00
10:53 AM,36.0,30.0,79,29.95,10.0,Calm,Calm,-,N/A,,Clear,0,2013-11-01 18:53:00
11:53 AM,41.0,32.0,70,29.96,10.0,Calm,Calm,-,N/A,,Partly Cloudy,0,2013-11-01 19:53:00
12:53 PM,44.1,30.9,60,29.99,10.0,Calm,Calm,-,N/A,,Partly Cloudy,0,2013-11-01 20:53:00
1:53 PM,44.1,30.9,60,30.00,10.0,SE,4.6,-,N/A,,Clear,130,2013-11-01 21:53:00
2:53 PM,44.1,30.9,60,30.01,10.0,SE,4.6,-,N/A,,Partly Cloudy,130,2013-11-01 22:53:00
3:53 PM,46.0,28.0,50,30.01,10.0,West,3.5,-,N/A,,Partly Cloudy,280,2013-11-01 23:53:00
4:53 PM,45.0,28.0,52,30.01,10.0,NW,4.6,-,N/A,,Partly Cloudy,320,2013-11-02 00:53:00
5:53 PM,42.1,27.0,55,30.03,10.0,Calm,Calm,-,N/A,,Partly Cloudy,0,2013-11-02 01:53:00
6:53 PM,35.1,28.9,78,30.03,10.0,West,6.9,-,N/A,,Partly Cloudy,280,2013-11-02 02:53:00
7:53 PM,32.0,28.0,85,30.04,10.0,West,6.9,-,N/A,,Partly Cloudy,280,2013-11-02 03:53:00
8:53 PM,30.9,28.0,89,30.05,10.0,West,4.6,-,N/A,,Clear,280,2013-11-02 04:53:00
9:53 PM,30.0,27.0,88,30.06,10.0,West,6.9,-,N/A,,Scattered Clouds,280,2013-11-02 05:53:00
10:53 PM,30.0,27.0,88,30.06,10.0,West,4.6,-,N/A,,Scattered Clouds,280,2013-11-02 06:53:00
11:53 PM,28.9,26.1,89,30.05,10.0,WSW,3.5,-,N/A,,Scattered Clouds,250,2013-11-02 07:53:00